Time,TemperatureF,DewpointF,PressureIn,WindDirection,WindDirectionDegrees,WindSpeedMPH,WindSpeedGustMPH,Humidity,HourlyPrecipIn,Conditions,Clouds,dailyrainin,SoftwareType,DateUTC
2013-07-13 00:00:00,66.0,58.2,30.08,North,0,0.0,0.0,76,0.00,,,0.00,WUHU21623XXSP,2013-07-13 05:00:00,
2013-07-13 00:05:00,65.8,58.0,30.08,North,0,0.0,0.0,76,0.00,,,0.00,WUHU21623XXSP,2013-07-13 05:05:00,
2013-07-13 00:10:00,65.7,58.4,30.08,North,0,0.0,0.0,77,0.00,,,0.00,WUHU21623XXSP,2013-07-13 05:10:00,
2013-07-13 00:15:00,65.5,58.1,30.08,North,0,0.0,0.0,77,0.00,,,0.00,WUHU21623XXSP,2013-07-13 05:15:00,
2013-07-13 00:20:00,65.3,57.9,30.08,North,0,0.0,0.0,77,0.00,,,0.00,WUHU21623XXSP,2013-07-13 05:20:00,
2013-07-13 00:23:00,65.3,57.9,30.08,North,0,0.0,0.0,77,0.00,,,0.00,WUHU21623XXSP,2013-07-13 05:23:00,
2013-07-13 00:28:00,65.1,57.7,30.08,North,0,0.0,0.0,77,0.00,,,0.00,WUHU21623XXSP,2013-07-13 05:28:00,
2013-07-13 00:33:00,65.1,57.7,30.08,North,0,0.0,0.0,77,0.00,,,0.00,WUHU21623XXSP,2013-07-13 05:33:00,
2013-07-13 00:38:00,65.1,57.7,30.08,North,0,0.0,0.0,77,0.00,,,0.00,WUHU21623XXSP,2013-07-13 05:38:00,
2013-07-13 00:43:00,65.1,57.7,30.08,North,0,0.0,0.0,77,0.00,,,0.00,WUHU21623XXSP,2013-07-13 05:43:00,
2013-07-13 00:48:00,65.1,57.7,30.08,North,0,0.0,0.0,77,0.00,,,0.00,WUHU21623XXSP,2013-07-13 05:48:00,
2013-07-13 00:53:00,64.9,57.5,30.08,North,0,0.0,0.0,77,0.00,,,0.00,WUHU21623XXSP,2013-07-13 05:53:00,
2013-07-13 00:58:00,64.9,57.5,30.08,North,0,0.0,0.0,77,0.00,,,0.00,WUHU21623XXSP,2013-07-13 05:58:00,
2013-07-13 01:03:00,64.9,57.5,30.08,North,0,0.0,0.0,77,0.00,,,0.00,WUHU21623XXSP,2013-07-13 06:03:00,
2013-07-13 01:08:00,64.9,57.2,30.08,North,0,0.0,0.0,76,0.00,,,0.00,WUHU21623XXSP,2013-07-13 06:08:00,
2013-07-13 01:13:00,64.8,57.0,30.08,North,0,0.0,0.0,76,0.00,,,0.00,WUHU21623XXSP,2013-07-13 06:13:00,
2013-07-13 01:18:00,64.6,57.0,30.08,North,0,0.0,0.0,76,0.00,,,0.00,WUHU21623XXSP,2013-07-13 06:18:00,
2013-07-13 01:23:00,64.6,56.8,30.08,North,0,0.0,0.0,76,0.00,,,0.00,WUHU21623XXSP,2013-07-13 06:23:00,
2013-07-13 01:28:00,64.4,56.7,30.08,North,0,0.0,0.0,76,0.00,,,0.00,WUHU21623XXSP,2013-07-13 06:28:00,
2013-07-13 01:33:00,64.2,56.5,30.09,North,0,0.0,0.0,76,0.00,,,0.00,WUHU21623XXSP,2013-07-13 06:33:00,
2013-07-13 01:38:00,64.2,56.5,30.09,North,0,0.0,0.0,76,0.00,,,0.00,WUHU21623XXSP,2013-07-13 06:38:00,
2013-07-13 01:43:00,64.0,56.7,30.09,North,0,0.0,0.0,77,0.00,,,0.00,WUHU21623XXSP,2013-07-13 06:43:00,
2013-07-13 01:48:00,64.0,56.7,30.09,North,0,0.0,0.0,77,0.00,,,0.00,WUHU21623XXSP,2013-07-13 06:48:00,
2013-07-13 01:53:00,63.7,56.7,30.09,North,0,0.0,0.0,78,0.00,,,0.00,WUHU21623XXSP,2013-07-13 06:53:00,
2013-07-13 01:58:00,63.5,56.7,30.09,North,0,0.0,0.0,78,0.00,,,0.00,WUHU21623XXSP,2013-07-13 06:58:00,
2013-07-13 02:03:00,63.3,56.3,30.09,North,0,0.0,0.0,78,0.00,,,0.00,WUHU21623XXSP,2013-07-13 07:03:00,
2013-07-13 02:08:00,63.1,56.7,30.09,North,0,0.0,0.0,79,0.00,,,0.00,WUHU21623XXSP,2013-07-13 07:08:00,
2013-07-13 02:13:00,63.1,56.5,30.10,North,0,0.0,0.0,79,0.00,,,0.00,WUHU21623XXSP,2013-07-13 07:13:00,
2013-07-13 02:18:00,63.0,56.7,30.10,North,0,0.0,0.0,80,0.00,,,0.00,WUHU21623XXSP,2013-07-13 07:18:00,
2013-07-13 02:23:00,62.8,56.5,30.10,North,0,0.0,0.0,80,0.00,,,0.00,WUHU21623XXSP,2013-07-13 07:23:00,
2013-07-13 02:28:00,62.6,56.5,30.10,North,0,0.0,0.0,80,0.00,,,0.00,WUHU21623XXSP,2013-07-13 07:28:00,
2013-07-13 02:33:00,62.4,56.1,30.10,North,0,0.0,0.0,80,0.00,,,0.00,WUHU21623XXSP,2013-07-13 07:33:00,
2013-07-13 02:38:00,62.4,56.1,30.10,North,0,0.0,0.0,80,0.00,,,0.00,WUHU21623XXSP,2013-07-13 07:38:00,
2013-07-13 02:43:00,62.2,56.3,30.10,North,0,0.0,0.0,81,0.00,,,0.00,WUHU21623XXSP,2013-07-13 07:43:00,
2013-07-13 02:48:00,62.1,56.1,30.09,North,0,0.0,0.0,81,0.00,,,0.00,WUHU21623XXSP,2013-07-13 07:48:00,
2013-07-13 02:53:00,61.9,56.0,30.10,North,0,0.0,0.0,81,0.00,,,0.00,WUHU21623XXSP,2013-07-13 07:53:00,
2013-07-13 02:58:00,61.7,55.8,30.10,North,0,0.0,0.0,81,0.00,,,0.00,WUHU21623XXSP,2013-07-13 07:58:00,
2013-07-13 03:03:00,61.7,55.8,30.10,North,0,0.0,0.0,81,0.00,,,0.00,WUHU21623XXSP,2013-07-13 08:03:00,
2013-07-13 03:08:00,61.5,55.8,30.10,North,0,0.0,0.0,81,0.00,,,0.00,WUHU21623XXSP,2013-07-13 08:08:00,
2013-07-13 03:13:00,61.5,56.0,30.10,North,0,0.0,0.0,82,0.00,,,0.00,WUHU21623XXSP,2013-07-13 08:13:00,
2013-07-13 03:18:00,61.5,56.0,30.10,North,0,0.0,0.0,82,0.00,,,0.00,WUHU21623XXSP,2013-07-13 08:18:00,
2013-07-13 03:23:00,61.5,56.0,30.10,North,0,0.0,0.0,82,0.00,,,0.00,WUHU21623XXSP,2013-07-13 08:23:00,
2013-07-13 03:28:00,61.3,55.8,30.10,North,0,0.0,0.0,82,0.00,,,0.00,WUHU21623XXSP,2013-07-13 08:28:00,
2013-07-13 03:33:00,61.3,55.8,30.10,North,0,0.0,0.0,82,0.00,,,0.00,WUHU21623XXSP,2013-07-13 08:33:00,
2013-07-13 03:38:00,61.2,55.7,30.09,North,0,0.0,0.0,82,0.00,,,0.00,WUHU21623XXSP,2013-07-13 08:38:00,
2013-07-13 03:43:00,61.2,55.7,30.09,North,0,0.0,0.0,82,0.00,,,0.00,WUHU21623XXSP,2013-07-13 08:43:00,
2013-07-13 03:48:00,61.2,56.0,30.10,North,0,0.0,0.0,83,0.00,,,0.00,WUHU21623XXSP,2013-07-13 08:48:00,
2013-07-13 03:53:00,61.0,55.5,30.10,North,0,0.0,0.0,82,0.00,,,0.00,WUHU21623XXSP,2013-07-13 08:53:00,
2013-07-13 03:58:00,61.0,55.5,30.10,North,0,0.0,0.0,82,0.00,,,0.00,WUHU21623XXSP,2013-07-13 08:58:00,
2013-07-13 04:03:00,60.8,55.7,30.10,North,0,0.0,0.0,83,0.00,,,0.00,WUHU21623XXSP,2013-07-13 09:03:00,
2013-07-13 04:08:00,60.6,55.5,30.10,North,0,0.0,0.0,83,0.00,,,0.00,WUHU21623XXSP,2013-07-13 09:08:00,
2013-07-13 04:13:00,60.6,55.5,30.10,North,0,0.0,0.0,83,0.00,,,0.00,WUHU21623XXSP,2013-07-13 09:13:00,
2013-07-13 04:18:00,60.6,55.5,30.10,North,0,0.0,0.0,83,0.00,,,0.00,WUHU21623XXSP,2013-07-13 09:18:00,
2013-07-13 04:23:00,60.6,55.5,30.09,North,0,0.0,0.0,83,0.00,,,0.00,WUHU21623XXSP,2013-07-13 09:23:00,
2013-07-13 04:28:00,60.6,55.5,30.09,North,0,0.0,0.0,83,0.00,,,0.00,WUHU21623XXSP,2013-07-13 09:28:00,
2013-07-13 04:33:00,60.6,55.5,30.09,North,0,0.0,0.0,83,0.00,,,0.00,WUHU21623XXSP,2013-07-13 09:33:00,
2013-07-13 04:38:00,60.4,55.3,30.09,North,0,0.0,0.0,83,0.00,,,0.00,WUHU21623XXSP,2013-07-13 09:38:00,
2013-07-13 04:43:00,60.4,55.3,30.09,North,0,0.0,0.0,83,0.00,,,0.00,WUHU21623XXSP,2013-07-13 09:43:00,
2013-07-13 04:48:00,60.4,55.3,30.08,North,0,0.0,0.0,83,0.00,,,0.00,WUHU21623XXSP,2013-07-13 09:48:00,
2013-07-13 13:10:00,84.9,61.8,30.10,North,0,0.0,0.0,46,0.00,,,0.00,WUHU21623XXSP,2013-07-13 18:10:00,
2013-07-13 13:15:00,84.7,61.0,30.10,North,0,0.0,0.0,45,0.00,,,0.00,WUHU21623XXSP,2013-07-13 18:15:00,
2013-07-13 13:20:00,84.4,60.7,30.09,North,0,0.0,0.0,45,0.00,,,0.00,WUHU21623XXSP,2013-07-13 18:20:00,
2013-07-13 13:25:00,84.0,60.4,30.09,North,0,0.0,0.0,45,0.00,,,0.00,WUHU21623XXSP,2013-07-13 18:25:00,
2013-07-13 13:30:00,83.7,60.0,30.09,North,0,0.0,0.0,45,0.00,,,0.00,WUHU21623XXSP,2013-07-13 18:30:00,
2013-07-13 13:35:00,83.5,60.5,30.09,North,0,0.0,0.0,46,0.00,,,0.00,WUHU21623XXSP,2013-07-13 18:35:00,
2013-07-13 13:40:00,83.5,60.5,30.10,North,0,0.0,0.0,46,0.00,,,0.00,WUHU21623XXSP,2013-07-13 18:40:00,
2013-07-13 13:45:00,83.5,61.1,30.10,North,0,0.0,0.0,47,0.00,,,0.00,WUHU21623XXSP,2013-07-13 18:45:00,
2013-07-13 13:50:00,83.5,61.1,30.09,North,0,0.0,0.0,47,0.00,,,0.00,WUHU21623XXSP,2013-07-13 18:50:00,
2013-07-13 13:55:00,83.5,61.1,30.09,North,0,0.0,0.0,47,0.00,,,0.00,WUHU21623XXSP,2013-07-13 18:55:00,
2013-07-13 14:00:00,83.5,61.1,30.08,North,0,0.0,0.0,47,0.00,,,0.00,WUHU21623XXSP,2013-07-13 19:00:00,
2013-07-13 14:05:00,83.1,60.7,30.08,North,0,0.0,0.0,47,0.00,,,0.00,WUHU21623XXSP,2013-07-13 19:05:00,
2013-07-13 14:10:00,83.1,61.4,30.08,North,0,0.0,0.0,48,0.00,,,0.00,WUHU21623XXSP,2013-07-13 19:10:00,
2013-07-13 14:15:00,83.1,62.0,30.08,North,0,0.0,0.0,49,0.00,,,0.00,WUHU21623XXSP,2013-07-13 19:15:00,
2013-07-13 14:20:00,83.1,62.0,30.08,North,0,0.0,0.0,49,0.00,,,0.00,WUHU21623XXSP,2013-07-13 19:20:00,
2013-07-13 14:25:00,83.1,62.0,30.08,North,0,0.0,0.0,49,0.00,,,0.00,WUHU21623XXSP,2013-07-13 19:25:00,
2013-07-13 14:30:00,83.1,62.0,30.08,North,0,0.0,0.0,49,0.00,,,0.00,WUHU21623XXSP,2013-07-13 19:30:00,
2013-07-13 14:35:00,83.1,62.0,30.08,North,0,0.0,0.0,49,0.00,,,0.00,WUHU21623XXSP,2013-07-13 19:35:00,
2013-07-13 14:40:00,82.9,61.2,30.08,North,0,0.0,0.0,48,0.00,,,0.00,WUHU21623XXSP,2013-07-13 19:40:00,
2013-07-13 14:45:00,82.9,61.2,30.08,North,0,0.0,0.0,48,0.00,,,0.00,WUHU21623XXSP,2013-07-13 19:45:00,
2013-07-13 14:50:00,82.8,61.0,30.09,North,0,0.0,0.0,48,0.00,,,0.00,WUHU21623XXSP,2013-07-13 19:50:00,
2013-07-13 14:55:00,82.9,61.8,30.09,North,0,0.0,0.0,49,0.00,,,0.00,WUHU21623XXSP,2013-07-13 19:55:00,
2013-07-13 15:00:00,82.9,61.8,30.09,North,0,0.0,0.0,49,0.00,,,0.00,WUHU21623XXSP,2013-07-13 20:00:00,
2013-07-13 15:05:00,83.1,61.4,30.08,North,0,0.0,0.0,48,0.00,,,0.00,WUHU21623XXSP,2013-07-13 20:05:00,
2013-07-13 15:13:00,83.3,61.5,30.09,North,0,0.0,0.0,48,0.00,,,0.00,WUHU21623XXSP,2013-07-13 20:13:00,
2013-07-13 15:18:00,83.5,61.7,30.09,North,0,0.0,0.0,48,0.00,,,0.00,WUHU21623XXSP,2013-07-13 20:18:00,
2013-07-13 15:23:00,83.5,61.7,30.09,North,0,0.0,0.0,48,0.00,,,0.00,WUHU21623XXSP,2013-07-13 20:23:00,
2013-07-13 15:28:00,83.1,61.5,30.09,North,0,0.0,0.0,48,0.00,,,0.00,WUHU21623XXSP,2013-07-13 20:28:00,
2013-07-13 15:33:00,82.8,61.2,30.08,North,0,0.0,0.0,49,0.00,,,0.00,WUHU21623XXSP,2013-07-13 20:33:00,
2013-07-13 15:38:00,82.6,62.1,30.09,North,0,0.0,0.0,50,0.00,,,0.00,WUHU21623XXSP,2013-07-13 20:38:00,
2013-07-13 15:43:00,82.2,61.9,30.09,North,0,0.0,0.0,50,0.00,,,0.00,WUHU21623XXSP,2013-07-13 20:43:00,
2013-07-13 15:48:00,82.2,61.7,30.09,North,0,0.0,0.0,50,0.00,,,0.00,WUHU21623XXSP,2013-07-13 20:48:00,
2013-07-13 15:53:00,82.0,61.6,30.09,North,0,0.0,0.0,51,0.00,,,0.00,WUHU21623XXSP,2013-07-13 20:53:00,
2013-07-13 15:58:00,81.9,61.9,30.08,North,0,0.0,0.0,51,0.00,,,0.00,WUHU21623XXSP,2013-07-13 20:58:00,
2013-07-13 16:03:00,81.7,61.8,30.08,North,0,0.0,0.0,51,0.00,,,0.00,WUHU21623XXSP,2013-07-13 21:03:00,
2013-07-13 16:08:00,81.7,61.8,30.08,North,0,0.0,0.0,51,0.00,,,0.00,WUHU21623XXSP,2013-07-13 21:08:00,
2013-07-13 16:13:00,81.7,62.3,30.08,North,0,0.0,0.0,52,0.00,,,0.00,WUHU21623XXSP,2013-07-13 21:13:00,
2013-07-13 16:18:00,81.7,62.3,30.07,North,0,0.0,0.0,52,0.00,,,0.00,WUHU21623XXSP,2013-07-13 21:18:00,
2013-07-13 16:23:00,82.2,62.3,30.07,North,0,0.0,0.0,51,0.00,,,0.00,WUHU21623XXSP,2013-07-13 21:23:00,
2013-07-13 16:28:00,82.8,62.9,30.07,North,0,0.0,0.0,50,0.00,,,0.00,WUHU21623XXSP,2013-07-13 21:28:00,
2013-07-13 16:33:00,83.8,62.8,30.07,North,0,0.0,0.0,49,0.00,,,0.00,WUHU21623XXSP,2013-07-13 21:33:00,
2013-07-13 16:38:00,85.1,62.6,30.07,North,0,0.0,0.0,47,0.00,,,0.00,WUHU21623XXSP,2013-07-13 21:38:00,
2013-07-13 16:43:00,85.6,62.5,30.07,North,0,0.0,0.0,46,0.00,,,0.00,WUHU21623XXSP,2013-07-13 21:43:00,
2013-07-13 16:48:00,85.6,62.5,30.07,North,0,0.0,0.0,46,0.00,,,0.00,WUHU21623XXSP,2013-07-13 21:48:00,
2013-07-13 16:53:00,84.9,62.0,30.06,North,0,0.0,0.0,46,0.00,,,0.00,WUHU21623XXSP,2013-07-13 21:53:00,
2013-07-13 16:58:00,84.7,61.6,30.06,North,0,0.0,0.0,46,0.00,,,0.00,WUHU21623XXSP,2013-07-13 21:58:00,
2013-07-13 17:03:00,84.4,62.0,30.06,North,0,0.0,0.0,47,0.00,,,0.00,WUHU21623XXSP,2013-07-13 22:03:00,
2013-07-13 17:08:00,84.4,62.6,30.06,North,0,0.0,0.0,48,0.00,,,0.00,WUHU21623XXSP,2013-07-13 22:08:00,
2013-07-13 17:13:00,84.0,62.2,30.05,North,0,0.0,0.0,48,0.00,,,0.00,WUHU21623XXSP,2013-07-13 22:13:00,
2013-07-13 17:18:00,84.4,62.6,30.06,North,0,0.0,0.0,48,0.00,,,0.00,WUHU21623XXSP,2013-07-13 22:18:00,
2013-07-13 17:23:00,84.4,62.6,30.05,North,0,0.0,0.0,48,0.00,,,0.00,WUHU21623XXSP,2013-07-13 22:23:00,
2013-07-13 17:28:00,86.0,63.4,30.06,North,0,0.0,0.0,47,0.00,,,0.00,WUHU21623XXSP,2013-07-13 22:28:00,
2013-07-13 17:33:00,86.9,64.2,30.06,North,0,0.0,0.0,47,0.00,,,0.00,WUHU21623XXSP,2013-07-13 22:33:00,
2013-07-13 17:38:00,86.5,63.9,30.06,North,0,0.0,0.0,47,0.00,,,0.00,WUHU21623XXSP,2013-07-13 22:38:00,
2013-07-13 17:43:00,86.5,63.9,30.06,North,0,0.0,0.0,47,0.00,,,0.00,WUHU21623XXSP,2013-07-13 22:43:00,
2013-07-13 17:48:00,85.6,63.1,30.06,North,0,0.0,0.0,47,0.00,,,0.00,WUHU21623XXSP,2013-07-13 22:48:00,
2013-07-13 17:53:00,85.5,62.9,30.06,North,0,0.0,0.0,47,0.00,,,0.00,WUHU21623XXSP,2013-07-13 22:53:00,
2013-07-13 17:58:00,87.1,62.9,30.06,North,0,0.0,0.0,45,0.00,,,0.00,WUHU21623XXSP,2013-07-13 22:58:00,
2013-07-13 18:03:00,86.5,62.6,30.06,North,0,0.0,0.0,45,0.00,,,0.00,WUHU21623XXSP,2013-07-13 23:03:00,
2013-07-13 18:11:00,87.1,63.1,30.05,North,0,0.0,0.0,45,0.00,,,0.00,WUHU21623XXSP,2013-07-13 23:11:00,
2013-07-13 18:16:00,89.1,63.3,30.05,North,0,0.0,0.0,43,0.00,,,0.00,WUHU21623XXSP,2013-07-13 23:16:00,
2013-07-13 18:21:00,91.6,64.7,30.04,North,0,0.0,0.0,40,0.00,,,0.00,WUHU21623XXSP,2013-07-13 23:21:00,
2013-07-13 18:26:00,91.8,64.0,30.04,North,0,0.0,0.0,40,0.00,,,0.00,WUHU21623XXSP,2013-07-13 23:26:00,
2013-07-13 18:31:00,91.0,63.4,30.05,North,0,0.0,0.0,40,0.00,,,0.00,WUHU21623XXSP,2013-07-13 23:31:00,
2013-07-13 18:36:00,89.2,62.4,30.05,North,0,0.0,0.0,41,0.00,,,0.00,WUHU21623XXSP,2013-07-13 23:36:00,
2013-07-13 18:41:00,88.9,62.1,30.05,North,0,0.0,0.0,41,0.00,,,0.00,WUHU21623XXSP,2013-07-13 23:41:00,
2013-07-13 18:43:00,88.5,61.8,30.04,North,0,0.0,0.0,41,0.00,,,0.00,WUHU21623XXSP,2013-07-13 23:43:00,
2013-07-13 18:48:00,87.4,61.6,30.04,North,0,0.0,0.0,42,0.00,,,0.00,WUHU21623XXSP,2013-07-13 23:48:00,
2013-07-13 18:53:00,86.2,61.1,30.04,North,0,0.0,0.0,43,0.00,,,0.00,WUHU21623XXSP,2013-07-13 23:53:00,
2013-07-13 18:58:00,85.5,61.7,30.04,North,0,0.0,0.0,45,0.00,,,0.00,WUHU21623XXSP,2013-07-13 23:58:00,
2013-07-13 19:03:00,85.3,62.1,30.04,North,0,0.0,0.0,46,0.00,,,0.00,WUHU21623XXSP,2013-07-14 00:03:00,
2013-07-13 19:08:00,86.4,62.5,30.04,North,0,0.0,0.0,45,0.00,,,0.00,WUHU21623XXSP,2013-07-14 00:08:00,
2013-07-13 19:13:00,88.0,63.3,30.05,North,0,0.0,0.0,44,0.00,,,0.00,WUHU21623XXSP,2013-07-14 00:13:00,
2013-07-13 19:18:00,87.6,63.0,30.05,North,0,0.0,0.0,44,0.00,,,0.00,WUHU21623XXSP,2013-07-14 00:18:00,
2013-07-13 19:23:00,87.6,63.0,30.05,North,0,0.0,0.0,44,0.00,,,0.00,WUHU21623XXSP,2013-07-14 00:23:00,
2013-07-13 19:28:00,86.7,63.4,30.05,North,0,0.0,0.0,46,0.00,,,0.00,WUHU21623XXSP,2013-07-14 00:28:00,
2013-07-13 19:33:00,84.9,62.4,30.04,North,0,0.0,0.0,47,0.00,,,0.00,WUHU21623XXSP,2013-07-14 00:33:00,
2013-07-13 19:38:00,83.8,62.1,30.04,North,0,0.0,0.0,48,0.00,,,0.00,WUHU21623XXSP,2013-07-14 00:38:00,
2013-07-13 19:43:00,83.1,62.0,30.04,North,0,0.0,0.0,49,0.00,,,0.00,WUHU21623XXSP,2013-07-14 00:43:00,
2013-07-13 19:48:00,82.0,62.1,30.05,North,0,0.0,0.0,51,0.00,,,0.00,WUHU21623XXSP,2013-07-14 00:48:00,
2013-07-13 19:53:00,81.5,61.6,30.05,North,0,0.0,0.0,51,0.00,,,0.00,WUHU21623XXSP,2013-07-14 00:53:00,
2013-07-13 19:58:00,81.1,61.8,30.05,North,0,0.0,0.0,52,0.00,,,0.00,WUHU21623XXSP,2013-07-14 00:58:00,
2013-07-13 20:03:00,80.4,62.2,30.05,North,0,0.0,0.0,54,0.00,,,0.00,WUHU21623XXSP,2013-07-14 01:03:00,
2013-07-13 20:08:00,79.9,61.7,30.05,North,0,0.0,0.0,54,0.00,,,0.00,WUHU21623XXSP,2013-07-14 01:08:00,
2013-07-13 20:13:00,79.5,61.5,30.05,North,0,0.0,0.0,54,0.00,,,0.00,WUHU21623XXSP,2013-07-14 01:13:00,
2013-07-13 20:19:00,79.0,61.6,30.05,North,0,0.0,0.0,55,0.00,,,0.00,WUHU21623XXSP,2013-07-14 01:19:00,
2013-07-13 20:24:00,78.6,61.6,30.06,North,0,0.0,0.0,56,0.00,,,0.00,WUHU21623XXSP,2013-07-14 01:24:00,
2013-07-13 20:29:00,78.6,61.6,30.06,North,0,0.0,0.0,56,0.00,,,0.00,WUHU21623XXSP,2013-07-14 01:29:00,
2013-07-13 20:34:00,77.9,61.4,30.06,North,0,0.0,0.0,57,0.00,,,0.00,WUHU21623XXSP,2013-07-14 01:34:00,
2013-07-13 20:39:00,77.5,61.2,30.06,North,0,0.0,0.0,57,0.00,,,0.00,WUHU21623XXSP,2013-07-14 01:39:00,
2013-07-13 20:44:00,77.2,61.6,30.06,North,0,0.0,0.0,58,0.00,,,0.00,WUHU21623XXSP,2013-07-14 01:44:00,
2013-07-13 20:49:00,76.8,61.6,30.06,North,0,0.0,0.0,60,0.00,,,0.00,WUHU21623XXSP,2013-07-14 01:49:00,
2013-07-13 20:54:00,76.5,61.6,30.06,North,0,0.0,0.0,60,0.00,,,0.00,WUHU21623XXSP,2013-07-14 01:54:00,
2013-07-13 20:59:00,76.1,61.4,30.06,North,0,0.0,0.0,60,0.00,,,0.00,WUHU21623XXSP,2013-07-14 01:59:00,
2013-07-13 21:04:00,75.6,61.6,30.06,North,0,0.0,0.0,62,0.00,,,0.00,WUHU21623XXSP,2013-07-14 02:04:00,
2013-07-13 21:09:00,75.4,61.0,30.06,North,0,0.0,0.0,61,0.00,,,0.00,WUHU21623XXSP,2013-07-14 02:09:00,
2013-07-13 21:14:00,75.0,61.1,30.06,North,0,0.0,0.0,62,0.00,,,0.00,WUHU21623XXSP,2013-07-14 02:14:00,
2013-07-13 21:19:00,74.5,60.6,30.06,North,0,0.0,0.0,62,0.00,,,0.00,WUHU21623XXSP,2013-07-14 02:19:00,
2013-07-13 21:24:00,74.3,60.6,30.07,North,0,0.0,0.0,62,0.00,,,0.00,WUHU21623XXSP,2013-07-14 02:24:00,
2013-07-13 21:29:00,73.9,60.7,30.07,North,0,0.0,0.0,63,0.00,,,0.00,WUHU21623XXSP,2013-07-14 02:29:00,
2013-07-13 21:34:00,73.8,60.5,30.07,North,0,0.0,0.0,63,0.00,,,0.00,WUHU21623XXSP,2013-07-14 02:34:00,
2013-07-13 21:39:00,73.6,60.3,30.08,North,0,0.0,0.0,64,0.00,,,0.00,WUHU21623XXSP,2013-07-14 02:39:00,
2013-07-13 21:44:00,73.2,60.3,30.08,North,0,0.0,0.0,64,0.00,,,0.00,WUHU21623XXSP,2013-07-14 02:44:00,
2013-07-13 21:49:00,73.0,60.3,30.08,North,0,0.0,0.0,64,0.00,,,0.00,WUHU21623XXSP,2013-07-14 02:49:00,
2013-07-13 21:54:00,73.0,60.1,30.08,North,0,0.0,0.0,64,0.00,,,0.00,WUHU21623XXSP,2013-07-14 02:54:00,
2013-07-13 21:59:00,72.7,60.2,30.08,North,0,0.0,0.0,65,0.00,,,0.00,WUHU21623XXSP,2013-07-14 02:59:00,
2013-07-13 22:04:00,72.3,60.0,30.08,North,0,0.0,0.0,66,0.00,,,0.00,WUHU21623XXSP,2013-07-14 03:04:00,
2013-07-13 22:09:00,72.1,60.1,30.08,North,0,0.0,0.0,66,0.00,,,0.00,WUHU21623XXSP,2013-07-14 03:09:00,
2013-07-13 22:14:00,71.8,60.2,30.09,North,0,0.0,0.0,67,0.00,,,0.00,WUHU21623XXSP,2013-07-14 03:14:00,
2013-07-13 22:19:00,71.6,60.0,30.09,North,0,0.0,0.0,67,0.00,,,0.00,WUHU21623XXSP,2013-07-14 03:19:00,
2013-07-13 22:24:00,71.4,60.3,30.09,North,0,0.0,0.0,68,0.00,,,0.00,WUHU21623XXSP,2013-07-14 03:24:00,
2013-07-13 22:29:00,71.2,60.1,30.09,North,0,0.0,0.0,68,0.00,,,0.00,WUHU21623XXSP,2013-07-14 03:29:00,
2013-07-13 22:34:00,70.9,60.2,30.09,North,0,0.0,0.0,69,0.00,,,0.00,WUHU21623XXSP,2013-07-14 03:34:00,
2013-07-13 22:39:00,70.7,60.4,30.09,North,0,0.0,0.0,70,0.00,,,0.00,WUHU21623XXSP,2013-07-14 03:39:00,
2013-07-13 22:44:00,70.3,60.1,30.09,North,0,0.0,0.0,70,0.00,,,0.00,WUHU21623XXSP,2013-07-14 03:44:00,
2013-07-13 22:49:00,70.2,60.5,30.09,North,0,0.0,0.0,71,0.00,,,0.00,WUHU21623XXSP,2013-07-14 03:49:00,
2013-07-13 22:54:00,70.0,60.1,30.09,North,0,0.0,0.0,71,0.00,,,0.00,WUHU21623XXSP,2013-07-14 03:54:00,
2013-07-13 22:59:00,69.8,60.3,30.08,North,0,0.0,0.0,72,0.00,,,0.00,WUHU21623XXSP,2013-07-14 03:59:00,
2013-07-13 23:01:00,69.6,60.1,30.08,North,0,0.0,0.0,72,0.00,,,0.00,WUHU21623XXSP,2013-07-14 04:01:00,
2013-07-13 23:06:00,69.6,60.5,30.08,North,0,0.0,0.0,73,0.00,,,0.00,WUHU21623XXSP,2013-07-14 04:06:00,
2013-07-13 23:09:00,69.6,60.5,30.08,North,0,0.0,0.0,73,0.00,,,0.00,WUHU21623XXSP,2013-07-14 04:09:00,
2013-07-13 23:14:00,69.4,60.4,30.07,North,0,0.0,0.0,73,0.00,,,0.00,WUHU21623XXSP,2013-07-14 04:14:00,
2013-07-13 23:16:00,69.3,60.2,30.08,North,0,0.0,0.0,73,0.00,,,0.00,WUHU21623XXSP,2013-07-14 04:16:00,
2013-07-13 23:19:00,69.1,60.0,30.08,North,0,0.0,0.0,73,0.00,,,0.00,WUHU21623XXSP,2013-07-14 04:19:00,
2013-07-13 23:24:00,69.1,60.0,30.08,North,0,0.0,0.0,73,0.00,,,0.00,WUHU21623XXSP,2013-07-14 04:24:00,
2013-07-13 23:29:00,68.9,59.9,30.08,North,0,0.0,0.0,73,0.00,,,0.00,WUHU21623XXSP,2013-07-14 04:29:00,
2013-07-13 23:34:00,68.7,59.9,30.08,North,0,0.0,0.0,73,0.00,,,0.00,WUHU21623XXSP,2013-07-14 04:34:00,
2013-07-13 23:39:00,68.7,59.7,30.08,North,0,0.0,0.0,73,0.00,,,0.00,WUHU21623XXSP,2013-07-14 04:39:00,
2013-07-13 23:44:00,68.5,59.9,30.08,North,0,0.0,0.0,74,0.00,,,0.00,WUHU21623XXSP,2013-07-14 04:44:00,
2013-07-13 23:49:00,68.5,59.9,30.08,North,0,0.0,0.0,74,0.00,,,0.00,WUHU21623XXSP,2013-07-14 04:49:00,
2013-07-13 23:54:00,68.5,59.9,30.08,North,0,0.0,0.0,74,0.00,,,0.00,WUHU21623XXSP,2013-07-14 04:54:00,
2013-07-13 23:59:00,68.4,60.1,30.08,North,0,0.0,0.0,75,0.00,,,0.00,WUHU21623XXSP,2013-07-14 04:59:00,